Location: Central Falls
(41.8900°N, 71.3929°W)
Time: 12:22:27
(UTC+00:00)

A-11 Canister half - Pass Details

Date: 09 December 2023
Orbit: 1526 x 1682 km, 47.3° (Epoch: 20 February)

Event Time Altitude Azimuth Distance (km) Brightness Sun altitude
Rises 00:59:35 0° 267° (W) 4,930 12.5 -41.1°
Reaches altitude 10° 01:02:48 10° 270° (W) 3,944 11.8 -41.7°
Enters shadow 01:11:21 60° 311° (NW) 1,880 9.4 -43.2°
Maximum altitude 01:12:55 66° 353° (N) 1,794 - -43.5°
Drops below altitude 10° 01:22:53 10° 75° (ENE) 3,885 - -45.4°
Sets 01:26:02 0° 79° (ENE) 4,853 - -45.9°
